Location: Newark
(43.4306°N, 0.3089°E)
Time: 05:11:16
(UTC+00:00)

S-56A Canister/Altair - Pass Details

Date: 21 August 2019
Orbit: 633 x 2499 km, 38.9° (Epoch: 17 September)

Event Time Altitude Azimuth Distance (km) Brightness Sun altitude
Rises 22:39:43 0° 253° (WSW) 2,980 - -31.5°
Reaches altitude 10° 22:42:06 10° 247° (WSW) 2,017 - -31.7°
Maximum altitude 22:46:21 47° 173° (S) 852 - -32.0°
Drops below altitude 10° 22:50:59 10° 100° (E) 2,201 - -32.3°
Sets 22:53:42 0° 94° (E) 3,288 - -32.5°
